Home > Weather > Easter Island > Past weeks

Flag for Chile Past Weather in Easter Island, Chile — Yesterday and Last 2 Weeks

Now
63 °F

Partly cloudy.


Feels Like: 63 °F
Forecast: 62 / 67 °F
Wind: 17 mph from Southeast

Location: Isla De Pascua

Current Time: Jun 28, 2016 at 12:12:01 AM

Latest Report: Jun 28, 2016 at 12:00 AM


Visibility: N/A

Pressure: 30.24 "Hg

Humidity: 64%

Dew Point: 50 °F

Location of Easter IslandLocation

Past Weather in Easter Island — Graph

°F

Easter Island Temperature Yesterday

Maximum temperature yesterday: 66 °F (at 11:00 AM)
Minimum temperature yesterday: 61 °F (at 6:00 AM)
Average temperature yesterday: 63 °F

High & Low Weather Summary for the Past Weeks

 TemperatureHumidityPressure
High73 °F (Jun 18, 2:00 PM)100% (Jun 18, 4:00 AM)30.36 "Hg (Jun 18, 4:00 AM)
Low55 °F (Jun 18, 3:00 AM)52% (Jun 21, 12:00 PM)29.98 "Hg (Jun 14, 6:00 AM)
Average66 °F80%30.15 "Hg
* Reported Jun 12 11:00 PM — Jun 27 11:00 PM, Easter Island, Weather by CustomWeather, © 2016

Note: Actual official high and low records may vary slightly from our data, if they occured in-between our weather recording intervals... More about our weather records

Advertising

Easter Island Weather History for the Previous 24 Hours

Scroll right to see more
 ConditionsComfort  
Time TempWeatherWind HumidityBarometerVisibility
11:00 PM
Mon, Jun 27
63 °FPartly cloudy.17 mph64%30.24 "HgN/A
10:00 PM63 °FPartly cloudy.17 mph68%30.24 "HgN/A
9:00 PM63 °FPassing clouds.17 mph73%30.21 "HgN/A
8:00 PM64 °FPassing clouds.16 mph68%30.21 "HgN/A
7:00 PM64 °FPassing clouds.18 mph73%30.18 "HgN/A
6:00 PM64 °FPartly sunny.18 mph73%30.18 "HgN/A
5:00 PM64 °FBroken clouds.22 mph73%30.15 "HgN/A
4:00 PM63 °FRain showers. Broken clouds.23 mph83%30.15 "Hg3 mi
3:00 PM64 °FBroken clouds.17 mph73%30.18 "HgN/A
2:00 PM64 °FSprinkles. Cloudy.20 mph78%30.18 "Hg4 mi
1:00 PM66 °FBroken clouds.18 mph78%30.18 "HgN/A
12:00 PM63 °FRain showers. Cloudy.16 mphN/AN/A3 mi
11:00 AM66 °FPartly sunny.16 mph78%30.18 "HgN/A
10:00 AM63 °FPartly sunny.14 mph83%30.18 "HgN/A
9:00 AM63 °FBroken clouds.14 mph83%30.15 "HgN/A
8:00 AM63 °FPassing clouds.14 mph83%30.12 "HgN/A
7:00 AM63 °FPassing clouds.14 mph88%30.12 "HgN/A
6:00 AM61 °FRain showers. Mostly cloudy.13 mph88%30.09 "Hg4 mi
5:00 AM64 °FPassing clouds.12 mph78%30.09 "HgN/A
4:00 AM63 °FPartly cloudy.13 mph88%30.09 "HgN/A
3:00 AM63 °FMostly cloudy.17 mph88%30.09 "HgN/A
2:00 AM63 °FMostly cloudy.13 mph94%30.12 "HgN/A
1:00 AM63 °FSprinkles. Mostly cloudy.14 mph94%30.12 "Hg4 mi
12:00 AM63 °FRain showers. Mostly cloudy.13 mph94%30.09 "Hg3 mi
Weather by CustomWeather, © 2016

See weather overviewHow to use our weather pages